ATLAS 5 CENTAUR DEB, 46665

Orbit data source: Space-Track

ATLAS 5 CENTAUR DEB, 46665 is space debris in HEO originally from a launch on Wed, 17 Oct 2018 UTC launched from the Air Force Eastern Test Range (AFETR). Debris objects in space refer to the collection of defunct objects orbiting the Earth. Examples of debris include non-operational satellites, rocket bodies, and fragments generated from explosions, collisions, or faulty payload assembly.

Loading next visibility...
Identifier
46665, 2018-079CT
Orbit
HEO
Country
Flag of USUS
Related business
Flag of USUnited Launch Alliance/Lockheed Martin (US)
Manufacturer
ULA Decatur
Mission
Spacecraft
Bus & Motor
Unknown
Mass
Unknown
Launch date (UTC)
2018-10-17 (8 years ago)
Launch vehicle
Unknown
Launch site
Air Force Eastern Test Range (AFETR)
Object type
Payload
Rocket body
Debris
Shape & HBR
Unknown shape, 1.1 m
Radar Cross Section
Small (<0.1 m²)

Expand to show TLE details & history
Last TLE update: 3 days ago

TLE from 3 days ago
0 ATLAS 5 CENTAUR DEB
1 46665U 18079CT  26122.38641764 -.00000085  00000-0  00000-0 0  9998
2 46665  13.3833  62.9053 4577537 248.4247  57.7612  1.71524424 34852
Epoch: 2026-05-02T09:16Z
TLE epoch observation values (Epoch: 2026-05-02T09:16:26.484Z)
Latitude
-0°
Longitude
63.37555°
Altitude
21,644.267 km
Speed
3.864 km/s
True Right ascension
04h 11m 09s
True Declination
0° 00' 00"
Sunlit
Object was in daylight at epoch
Visualization orbit readout
Latitude
Unknown
Longitude
Unknown
Altitude
Unknown
Speed
Unknown
Apparent Right ascension
Unknown
Apparent Declination
Unknown
Sunlit
N/A
Visualization observer readout
Local Sidereal Time
17:56:04
Azimuth
Unknown
Elevation
Unknown
Doppler factor
Unknown
Orbital elements
Apogee altitude
36,598.367 km
Perigee altitude
9,608 km
Semi-major axis
29,481.32 km
Eccentricity
0.45775
Inclination
13.3833°
RAAN
62.9053°
Arg. of periapsis
248.4247°
True anomaly
111.62348°
Mean anomaly
57.7612°
Eccentric anomaly
83.83697°
Mean motion
0.42877 °/min
Orbital period
839.61 mins
BSTAR
0
Loading maneuver chart data...
Computing Atmospheric mass density...

Documentation

Showing up to 5 results
|